| time (UTC) | temp F | wind direction | speed knots | gust knots | rain 1hr in | rain 24hr in | rain mn in | humidity % | barometer mb |
| 20260507072541 | 72 | 266 | 2.6 | 5.2 | 0.00 | 0.00 | 0.00 | 49 | 1014.7 |
| 20260507072040 | 72 | 265 | 2.6 | 7.8 | 0.00 | 0.00 | 0.00 | 48 | 1014.6 |
| 20260507071548 | 73 | 229 | 3.5 | 8.7 | 0.00 | 0.00 | 0.00 | 49 | 1014.6 |
| 20260507071041 | 73 | 232 | 4.3 | 8.7 | 0.00 | 0.00 | 0.00 | 47 | 1014.7 |
| 20260507070541 | 73 | 207 | 3.5 | 7.0 | 0.00 | 0.00 | 0.00 | 47 | 1014.8 |
| 20260507070056 | 72 | 234 | 3.5 | 6.1 | 0.00 | 0.00 | 0.00 | 50 | 1014.7 |
| 20260507065541 | 71 | 220 | 4.3 | 6.1 | 0.00 | 0.00 | 0.00 | 51 | 1014.7 |
| 20260507065040 | 71 | 223 | 2.6 | 4.3 | 0.00 | 0.00 | 0.00 | 53 | 1014.8 |
| 20260507064557 | 70 | 235 | 2.6 | 3.5 | 0.00 | 0.00 | 0.00 | 54 | 1014.8 |
| 20260507064041 | 70 | 234 | 1.7 | 2.6 | 0.00 | 0.00 | 0.00 | 52 | 1014.9 |
| 20260507063540 | 69 | 216 | 1.7 | 1.7 | 0.00 | 0.00 | 0.00 | 55 | 1014.9 |
| 20260507063046 | 68 | 176 | 0.9 | 2.6 | 0.00 | 0.00 | 0.00 | 55 | 1014.9 |
| 20260507062537 | 68 | 214 | 0.9 | 2.6 | 0.00 | 0.00 | 0.00 | 59 | 1014.7 |
| 20260507062040 | 69 | 269 | 1.7 | 2.6 | 0.00 | 0.00 | 0.00 | 53 | 1014.8 |
| 20260507061547 | 69 | 329 | 0.9 | 2.6 | 0.00 | 0.00 | 0.00 | 51 | 1014.9 |
| 20260507061037 | 70 | 193 | 0.0 | 1.7 | 0.00 | 0.00 | 0.00 | 51 | 1014.7 |
| 20260507060540 | 69 | 193 | 0.9 | 1.7 | 0.00 | 0.00 | 0.00 | 54 | 1014.6 |
| 20260507060053 | 69 | 183 | 0.9 | 1.7 | 0.00 | 0.00 | 0.00 | 56 | 1014.7 |
| 20260507055541 | 69 | 170 | 0.0 | 1.7 | 0.00 | 0.00 | 0.00 | 53 | 1014.7 |
| 20260507055041 | 67 | 178 | 0.9 | 1.7 | 0.00 | 0.00 | 0.00 | 57 | 1014.7 |
| 20260507054549 | 69 | 229 | 0.9 | 1.7 | 0.00 | 0.00 | 0.00 | 57 | 1014.7 |
| 20260507054041 | 71 | 313 | 0.9 | 1.7 | 0.00 | 0.00 | 0.00 | 47 | 1014.6 |
| 20260507053541 | 71 | 298 | 0.9 | 0.9 | 0.00 | 0.00 | 0.00 | 48 | 1014.6 |
| 20260507053048 | 71 | 286 | 0.9 | 0.9 | 0.00 | 0.00 | 0.00 | 47 | 1014.6 |
| 20260507052541 | 71 | 270 | 0.9 | 0.9 | 0.00 | 0.00 | 0.00 | 49 | 1014.7 |
| 20260507052041 | 70 | 219 | 0.0 | 1.7 | 0.00 | 0.00 | 0.00 | 47 | 1014.7 |
| 20260507051546 | 70 | 219 | 0.9 | 1.7 | 0.00 | 0.00 | 0.00 | 54 | 1014.7 |
| 20260507051040 | 71 | 219 | 0.9 | 1.7 | 0.00 | 0.00 | 0.00 | 51 | 1014.7 |
| 20260507050537 | 73 | 0 | 0.0 | 1.7 | 0.00 | 0.00 | 0.00 | 46 | 1014.7 |
| 20260507050046 | 73 | 261 | 0.9 | 1.7 | 0.00 | 0.00 | 0.00 | 42 | 1014.7 |
| 20260507045541 | 73 | 223 | 0.9 | 1.7 | 0.00 | 0.00 | 0.00 | 41 | 1014.6 |
| 20260507045041 | 72 | 223 | 0.9 | 2.6 | 0.00 | 0.00 | 0.00 | 45 | 1014.6 |
| 20260507044558 | 71 | 210 | 1.7 | 2.6 | 0.00 | 0.00 | 0.00 | 49 | 1014.6 |
| 20260507044042 | 72 | 238 | 0.0 | 1.7 | 0.00 | 0.00 | 0.00 | 49 | 1014.6 |
| 20260507043540 | 73 | 303 | 0.9 | 1.7 | 0.00 | 0.00 | 0.00 | 42 | 1014.5 |
| 20260507043050 | 75 | 301 | 0.0 | 1.7 | 0.00 | 0.00 | 0.00 | 39 | 1014.5 |
| 20260507042538 | 77 | 0 | 0.0 | 1.7 | 0.00 | 0.00 | 0.00 | 34 | 1014.5 |
| 20260507042040 | 77 | 18 | 0.0 | 3.5 | 0.00 | 0.00 | 0.00 | 32 | 1014.6 |
| 20260507041550 | 77 | 18 | 1.7 | 3.5 | 0.00 | 0.00 | 0.00 | 31 | 1014.5 |
| 20260507041041 | 76 | 9 | 0.9 | 2.6 | 0.00 | 0.00 | 0.00 | 41 | 1014.5 |
| 20260507040541 | 76 | 327 | 0.0 | 2.6 | 0.00 | 0.00 | 0.00 | 35 | 1014.4 |
| 20260507040048 | 77 | 0 | 0.0 | 2.6 | 0.00 | 0.00 | 0.00 | 36 | 1014.3 |
| 20260507035540 | 77 | 34 | 0.9 | 4.3 | 0.00 | 0.00 | 0.00 | 33 | 1014.2 |
| 20260507035041 | 78 | 0 | 0.9 | 4.3 | 0.00 | 0.00 | 0.00 | 37 | 1014.1 |
| 20260507034548 | 78 | 128 | 0.9 | 3.5 | 0.00 | 0.00 | 0.00 | 32 | 1014.0 |
| 20260507034038 | 78 | 126 | 0.0 | 5.2 | 0.00 | 0.00 | 0.00 | 35 | 1013.9 |
| 20260507033540 | 80 | 127 | 1.7 | 5.2 | 0.00 | 0.00 | 0.00 | 28 | 1014.0 |
| 20260507033102 | 80 | 77 | 1.7 | 4.3 | 0.00 | 0.00 | 0.00 | 29 | 1013.8 |
| 20260507032542 | 80 | 162 | 0.9 | 7.0 | 0.00 | 0.00 | 0.00 | 29 | 1013.7 |
| 20260507032041 | 81 | 221 | 2.6 | 7.0 | 0.00 | 0.00 | 0.00 | 29 | 1013.6 |
| 20260507031559 | 81 | 150 | 3.5 | 10.4 | 0.00 | 0.00 | 0.00 | 28 | 1013.5 |
| 20260507031041 | 81 | 150 | 3.5 | 10.4 | 0.00 | 0.00 | 0.00 | 29 | 1013.5 |
| 20260507030540 | 81 | 167 | 4.3 | 8.7 | 0.00 | 0.00 | 0.00 | 27 | 1013.4 |
| 20260507030107 | 81 | 159 | 2.6 | 8.7 | 0.00 | 0.00 | 0.00 | 27 | 1013.4 |
| 20260507025540 | 81 | 191 | 4.3 | 8.7 | 0.00 | 0.00 | 0.00 | 28 | 1013.2 |
| 20260507025041 | 81 | 184 | 3.5 | 8.7 | 0.00 | 0.00 | 0.00 | 29 | 1013.2 |
| 20260507024607 | 81 | 127 | 3.5 | 8.7 | 0.00 | 0.00 | 0.00 | 28 | 1013.2 |
| 20260507024040 | 81 | 173 | 2.6 | 9.6 | 0.00 | 0.00 | 0.00 | 28 | 1013.0 |
| 20260507023540 | 81 | 138 | 4.3 | 12.2 | 0.00 | 0.00 | 0.00 | 28 | 1012.9 |
| 20260507023052 | 81 | 128 | 4.3 | 12.2 | 0.00 | 0.00 | 0.00 | 27 | 1012.9 |
| 20260507022538 | 81 | 153 | 5.2 | 13.0 | 0.00 | 0.00 | 0.00 | 27 | 1012.9 |
| 20260507022038 | 82 | 142 | 6.1 | 13.0 | 0.00 | 0.00 | 0.00 | 27 | 1012.8 |
| 20260507021556 | 82 | 148 | 7.8 | 12.2 | 0.00 | 0.00 | 0.00 | 27 | 1012.8 |
| 20260507021037 | 82 | 168 | 7.8 | 12.2 | 0.00 | 0.00 | 0.00 | 27 | 1012.8 |
| 20260507020541 | 82 | 96 | 6.1 | 11.3 | 0.00 | 0.00 | 0.00 | 29 | 1012.7 |
| 20260507020058 | 83 | 147 | 6.1 | 11.3 | 0.00 | 0.00 | 0.00 | 27 | 1012.7 |
| 20260507015541 | 83 | 150 | 5.2 | 11.3 | 0.00 | 0.00 | 0.00 | 27 | 1012.7 |
| 20260507015043 | 83 | 181 | 6.1 | 12.2 | 0.00 | 0.00 | 0.00 | 27 | 1012.8 |
| 20260507014555 | 83 | 134 | 6.1 | 12.2 | 0.00 | 0.00 | 0.00 | 26 | 1012.8 |
| 20260507014041 | 84 | 171 | 6.1 | 10.4 | 0.00 | 0.00 | 0.00 | 27 | 1012.4 |
| 20260507013543 | 84 | 128 | 7.0 | 10.4 | 0.00 | 0.00 | 0.00 | 27 | 1012.5 |
| 20260507013101 | 84 | 143 | 5.2 | 10.4 | 0.00 | 0.00 | 0.00 | 27 | 1012.6 |
| 20260507012540 | 84 | 137 | 5.2 | 10.4 | 0.00 | 0.00 | 0.00 | 27 | 1012.6 |
| 20260507012042 | 84 | 140 | 5.2 | 9.6 | 0.00 | 0.00 | 0.00 | 28 | 1012.6 |
| 20260507011554 | 84 | 178 | 6.1 | 9.6 | 0.00 | 0.00 | 0.00 | 28 | 1012.6 |
| 20260507011040 | 84 | 175 | 6.1 | 9.6 | 0.00 | 0.00 | 0.00 | 26 | 1012.6 |
| 20260507010540 | 84 | 157 | 4.3 | 9.6 | 0.00 | 0.00 | 0.00 | 28 | 1012.6 |
| 20260507010052 | 84 | 150 | 3.5 | 9.6 | 0.00 | 0.00 | 0.00 | 30 | 1012.6 |
| 20260507005537 | 84 | 103 | 2.6 | 9.6 | 0.00 | 0.00 | 0.00 | 29 | 1012.6 |
| 20260507005041 | 85 | 153 | 4.3 | 10.4 | 0.00 | 0.00 | 0.00 | 28 | 1012.5 |
| 20260507004551 | 85 | 121 | 4.3 | 10.4 | 0.00 | 0.00 | 0.00 | 28 | 1012.5 |
| 20260507004041 | 85 | 170 | 4.3 | 9.6 | 0.00 | 0.00 | 0.00 | 26 | 1012.6 |
| 20260507003544 | 85 | 171 | 5.2 | 9.6 | 0.00 | 0.00 | 0.00 | 29 | 1012.6 |
| 20260507003051 | 86 | 96 | 6.1 | 9.6 | 0.00 | 0.00 | 0.00 | 25 | 1012.4 |
| 20260507002537 | 86 | 78 | 6.1 | 9.6 | 0.00 | 0.00 | 0.00 | 26 | 1012.5 |
| 20260507002042 | 86 | 127 | 4.3 | 11.3 | 0.00 | 0.00 | 0.00 | 27 | 1012.4 |
| 20260507001546 | 86 | 99 | 4.3 | 11.3 | 0.00 | 0.00 | 0.00 | 25 | 1012.4 |
| 20260507001040 | 86 | 125 | 6.1 | 10.4 | 0.00 | 0.00 | 0.00 | 25 | 1012.3 |
| 20260507000541 | 87 | 89 | 7.0 | 10.4 | 0.00 | 0.00 | 0.00 | 25 | 1012.3 |
| 20260507000054 | 87 | 57 | 5.2 | 11.3 | 0.00 | 0.00 | 0.00 | 26 | 1012.3 |
| 20260506235543 | 87 | 86 | 5.2 | 11.3 | 0.00 | 0.00 | 0.00 | 25 | 1012.3 |
| 20260506235041 | 86 | 123 | 5.2 | 9.6 | 0.00 | 0.00 | 0.00 | 25 | 1012.2 |
| 20260506234604 | 86 | 80 | 7.0 | 9.6 | 0.00 | 0.00 | 0.00 | 25 | 1012.2 |
| 20260506234040 | 86 | 80 | 7.0 | 9.6 | 0.00 | 0.00 | 0.00 | 25 | 1012.3 |
| 20260506233541 | 87 | 90 | 5.2 | 10.4 | 0.00 | 0.00 | 0.00 | 24 | 1012.4 |
| 20260506233055 | 87 | 75 | 4.3 | 9.6 | 0.00 | 0.00 | 0.00 | 25 | 1012.3 |
| 20260506232540 | 87 | 92 | 5.2 | 9.6 | 0.00 | 0.00 | 0.00 | 24 | 1012.4 |
| 20260506232040 | 87 | 91 | 5.2 | 9.6 | 0.00 | 0.00 | 0.00 | 24 | 1012.4 |
| 20260506231555 | 87 | 76 | 5.2 | 9.6 | 0.00 | 0.00 | 0.00 | 24 | 1012.5 |
| 20260506231040 | 87 | 76 | 4.3 | 10.4 | 0.00 | 0.00 | 0.00 | 24 | 1012.5 |
| 20260506230537 | 87 | 101 | 6.1 | 9.6 | 0.00 | 0.00 | 0.00 | 24 | 1012.6 |
| 20260506230059 | 87 | 98 | 5.2 | 9.6 | 0.00 | 0.00 | 0.00 | 24 | 1012.7 |
| 20260506225541 | 86 | 81 | 5.2 | 9.6 | 0.00 | 0.00 | 0.00 | 25 | 1012.7 |
| 20260506225041 | 87 | 155 | 4.3 | 9.6 | 0.00 | 0.00 | 0.00 | 24 | 1012.7 |
| 20260506224546 | 88 | 66 | 4.3 | 7.8 | 0.00 | 0.00 | 0.00 | 24 | 1012.8 |
| 20260506224041 | 87 | 96 | 4.3 | 7.8 | 0.00 | 0.00 | 0.00 | 28 | 1012.9 |
| 20260506223541 | 87 | 95 | 5.2 | 10.4 | 0.00 | 0.00 | 0.00 | 25 | 1012.9 |
| 20260506223052 | 87 | 94 | 6.1 | 10.4 | 0.00 | 0.00 | 0.00 | 25 | 1013.0 |
| 20260506222541 | 87 | 71 | 4.3 | 11.3 | 0.00 | 0.00 | 0.00 | 25 | 1013.1 |
| 20260506222042 | 86 | 103 | 3.5 | 11.3 | 0.00 | 0.00 | 0.00 | 25 | 1013.2 |
| 20260506221552 | 87 | 80 | 3.5 | 8.7 | 0.00 | 0.00 | 0.00 | 24 | 1013.3 |
| 20260506221040 | 87 | 107 | 3.5 | 8.7 | 0.00 | 0.00 | 0.00 | 26 | 1013.3 |
| 20260506220542 | 86 | 71 | 3.5 | 8.7 | 0.00 | 0.00 | 0.00 | 25 | 1013.4 |
| 20260506220052 | 86 | 97 | 5.2 | 8.7 | 0.00 | 0.00 | 0.00 | 24 | 1013.6 |
| 20260506215541 | 87 | 103 | 3.5 | 7.8 | 0.00 | 0.00 | 0.00 | 25 | 1013.6 |
| 20260506215038 | 86 | 44 | 4.3 | 8.7 | 0.00 | 0.00 | 0.00 | 25 | 1013.6 |
| 20260506214550 | 86 | 74 | 3.5 | 8.7 | 0.00 | 0.00 | 0.00 | 26 | 1013.6 |
| 20260506214040 | 86 | 107 | 3.5 | 8.7 | 0.00 | 0.00 | 0.00 | 26 | 1013.8 |
| 20260506213537 | 86 | 75 | 3.5 | 7.8 | 0.00 | 0.00 | 0.00 | 25 | 1013.9 |
| 20260506213048 | 86 | 117 | 4.3 | 7.0 | 0.00 | 0.00 | 0.00 | 26 | 1013.9 |
| 20260506212540 | 86 | 106 | 2.6 | 7.0 | 0.00 | 0.00 | 0.00 | 26 | 1014.0 |
| 20260506212037 | 86 | 101 | 3.5 | 7.0 | 0.00 | 0.00 | 0.00 | 25 | 1014.1 |
| 20260506211554 | 85 | 85 | 3.5 | 6.1 | 0.00 | 0.00 | 0.00 | 26 | 1014.1 |
| 20260506211041 | 86 | 96 | 1.7 | 6.1 | 0.00 | 0.00 | 0.00 | 29 | 1014.2 |
| 20260506210541 | 85 | 43 | 1.7 | 7.8 | 0.00 | 0.00 | 0.00 | 26 | 1014.3 |
| 20260506210052 | 86 | 113 | 4.3 | 7.8 | 0.00 | 0.00 | 0.00 | 28 | 1014.4 |
| 20260506205540 | 84 | 13 | 2.6 | 7.8 | 0.00 | 0.00 | 0.00 | 26 | 1014.4 |
| 20260506205040 | 84 | 97 | 4.3 | 7.8 | 0.00 | 0.00 | 0.00 | 28 | 1014.5 |
| 20260506204552 | 85 | 81 | 4.3 | 7.8 | 0.00 | 0.00 | 0.00 | 28 | 1014.5 |
| 20260506204040 | 83 | 154 | 2.6 | 7.8 | 0.00 | 0.00 | 0.00 | 30 | 1014.6 |
| 20260506203540 | 84 | 128 | 4.3 | 7.8 | 0.00 | 0.00 | 0.00 | 29 | 1014.5 |
| 20260506203051 | 83 | 83 | 3.5 | 7.8 | 0.00 | 0.00 | 0.00 | 29 | 1014.7 |
| 20260506202541 | 84 | 109 | 3.5 | 6.1 | 0.00 | 0.00 | 0.00 | 31 | 1014.7 |
| 20260506202040 | 84 | 92 | 2.6 | 6.1 | 0.00 | 0.00 | 0.00 | 28 | 1014.8 |
| 20260506201555 | 83 | 74 | 3.5 | 6.1 | 0.00 | 0.00 | 0.00 | 29 | 1014.9 |
| 20260506201041 | 82 | 75 | 3.5 | 6.1 | 0.00 | 0.00 | 0.00 | 28 | 1014.9 |
| 20260506200539 | 84 | 50 | 3.5 | 6.1 | 0.00 | 0.00 | 0.00 | 27 | 1015.0 |
| 20260506200049 | 83 | 37 | 2.6 | 6.1 | 0.00 | 0.00 | 0.00 | 28 | 1015.1 |
| 20260506195538 | 83 | 117 | 3.5 | 6.1 | 0.00 | 0.00 | 0.00 | 30 | 1015.1 |
| 20260506195038 | 83 | 74 | 2.6 | 5.2 | 0.00 | 0.00 | 0.00 | 29 | 1015.3 |
| 20260506194553 | 83 | 101 | 1.7 | 7.0 | 0.00 | 0.00 | 0.00 | 31 | 1015.3 |
| 20260506194039 | 82 | 76 | 2.6 | 7.0 | 0.00 | 0.00 | 0.00 | 29 | 1015.5 |
| 20260506193538 | 81 | 89 | 2.6 | 7.0 | 0.00 | 0.00 | 0.00 | 29 | 1015.6 |
| 20260506193051 | 81 | 49 | 1.7 | 5.2 | 0.00 | 0.00 | 0.00 | 28 | 1015.6 |
| 20260506192538 | 81 | 44 | 1.7 | 5.2 | 0.00 | 0.00 | 0.00 | 28 | 1015.7 |
| 20260506192040 | 81 | 117 | 2.6 | 5.2 | 0.00 | 0.00 | 0.00 | 31 | 1015.9 |
| 20260506191553 | 79 | 74 | 2.6 | 5.2 | 0.00 | 0.00 | 0.00 | 29 | 1015.9 |
| 20260506191039 | 80 | 92 | 2.6 | 5.2 | 0.00 | 0.00 | 0.00 | 33 | 1016.0 |
| 20260506190539 | 80 | 155 | 0.9 | 3.5 | 0.00 | 0.00 | 0.00 | 32 | 1016.0 |
| 20260506190054 | 80 | 78 | 1.7 | 3.5 | 0.00 | 0.00 | 0.00 | 34 | 1016.1 |
| 20260506185538 | 80 | 168 | 0.9 | 3.5 | 0.00 | 0.00 | 0.00 | 31 | 1016.2 |
| 20260506185038 | 81 | 65 | 0.9 | 3.5 | 0.00 | 0.00 | 0.00 | 30 | 1016.3 |
| 20260506184554 | 80 | 360 | 1.7 | 3.5 | 0.00 | 0.00 | 0.00 | 29 | 1016.4 |
| 20260506184038 | 82 | 25 | 0.9 | 6.1 | 0.00 | 0.00 | 0.00 | 29 | 1016.5 |
| 20260506183538 | 78 | 60 | 1.7 | 6.1 | 0.00 | 0.00 | 0.00 | 34 | 1016.5 |
| 20260506183051 | 78 | 77 | 2.6 | 5.2 | 0.00 | 0.00 | 0.00 | 30 | 1016.5 |
| 20260506182538 | 78 | 88 | 1.7 | 5.2 | 0.00 | 0.00 | 0.00 | 31 | 1016.6 |
| 20260506182040 | 77 | 134 | 0.9 | 5.2 | 0.00 | 0.00 | 0.00 | 33 | 1016.5 |
| 20260506181549 | 77 | 130 | 2.6 | 5.2 | 0.00 | 0.00 | 0.00 | 34 | 1016.7 |
| 20260506181039 | 77 | 55 | 2.6 | 5.2 | 0.00 | 0.00 | 0.00 | 32 | 1016.7 |
| 20260506180539 | 77 | 127 | 2.6 | 5.2 | 0.00 | 0.00 | 0.00 | 36 | 1016.7 |
| 20260506180049 | 77 | 129 | 2.6 | 5.2 | 0.00 | 0.00 | 0.00 | 35 | 1016.7 |
| 20260506175539 | 76 | 105 | 1.7 | 5.2 | 0.00 | 0.00 | 0.00 | 35 | 1016.7 |
| 20260506175038 | 76 | 100 | 1.7 | 5.2 | 0.00 | 0.00 | 0.00 | 34 | 1016.8 |
| 20260506174552 | 75 | 136 | 2.6 | 5.2 | 0.00 | 0.00 | 0.00 | 37 | 1016.7 |
| 20260506174038 | 76 | 111 | 1.7 | 4.3 | 0.00 | 0.00 | 0.00 | 35 | 1016.7 |
| 20260506173539 | 76 | 55 | 1.7 | 6.1 | 0.00 | 0.00 | 0.00 | 36 | 1016.7 |
| 20260506173124 | 75 | 142 | 1.7 | 6.1 | 0.00 | 0.00 | 0.00 | 36 | 1016.8 |
| 20260506172538 | 76 | 138 | 0.9 | 5.2 | 0.00 | 0.00 | 0.00 | 35 | 1016.8 |
| 20260506172038 | 75 | 346 | 1.7 | 5.2 | 0.00 | 0.00 | 0.00 | 35 | 1016.7 |
| 20260506171549 | 74 | 360 | 2.6 | 6.1 | 0.00 | 0.00 | 0.00 | 36 | 1016.8 |
| 20260506171040 | 74 | 148 | 1.7 | 6.1 | 0.00 | 0.00 | 0.00 | 37 | 1016.7 |
| 20260506170540 | 73 | 135 | 1.7 | 3.5 | 0.00 | 0.00 | 0.00 | 37 | 1016.6 |
| 20260506170050 | 73 | 213 | 1.7 | 6.1 | 0.00 | 0.00 | 0.00 | 37 | 1016.7 |
| 20260506165538 | 73 | 115 | 3.5 | 6.1 | 0.00 | 0.00 | 0.00 | 36 | 1016.7 |
| 20260506165038 | 73 | 103 | 3.5 | 5.2 | 0.00 | 0.00 | 0.00 | 38 | 1016.7 |
| 20260506164556 | 72 | 65 | 2.6 | 6.1 | 0.00 | 0.00 | 0.00 | 40 | 1016.7 |
| 20260506164037 | 72 | 97 | 2.6 | 6.1 | 0.00 | 0.00 | 0.00 | 40 | 1016.7 |
| 20260506163538 | 72 | 66 | 1.7 | 3.5 | 0.00 | 0.00 | 0.00 | 40 | 1016.8 |
| 20260506163103 | 71 | 78 | 1.7 | 3.5 | 0.00 | 0.00 | 0.00 | 42 | 1016.8 |
| 20260506162538 | 71 | 81 | 0.9 | 3.5 | 0.00 | 0.00 | 0.00 | 42 | 1016.8 |
| 20260506162038 | 71 | 70 | 0.0 | 2.6 | 0.00 | 0.00 | 0.00 | 42 | 1016.8 |
| 20260506161603 | 71 | 74 | 0.9 | 2.6 | 0.00 | 0.00 | 0.00 | 42 | 1016.8 |
| 20260506161038 | 71 | 26 | 0.9 | 2.6 | 0.00 | 0.00 | 0.00 | 42 | 1016.8 |
| 20260506160538 | 70 | 0 | 0.9 | 2.6 | 0.00 | 0.00 | 0.00 | 43 | 1016.7 |
| 20260506160058 | 70 | 17 | 1.7 | 2.6 | 0.00 | 0.00 | 0.00 | 44 | 1016.8 |
| 20260506155538 | 68 | 237 | 0.0 | 2.6 | 0.00 | 0.00 | 0.00 | 44 | 1016.8 |
| 20260506155038 | 68 | 0 | 0.9 | 2.6 | 0.00 | 0.00 | 0.00 | 47 | 1016.6 |
| 20260506154556 | 68 | 234 | 0.9 | 1.7 | 0.00 | 0.00 | 0.00 | 50 | 1016.7 |
| 20260506154038 | 68 | 0 | 0.9 | 1.7 | 0.00 | 0.00 | 0.00 | 46 | 1016.8 |
| 20260506153538 | 67 | 297 | 0.0 | 1.7 | 0.00 | 0.00 | 0.00 | 49 | 1016.8 |
| 20260506153056 | 66 | 238 | 0.9 | 1.7 | 0.00 | 0.00 | 0.00 | 50 | 1016.7 |
| 20260506152539 | 66 | 254 | 0.9 | 1.7 | 0.00 | 0.00 | 0.00 | 51 | 1016.7 |
| 20260506152038 | 66 | 234 | 0.0 | 1.7 | 0.00 | 0.00 | 0.00 | 51 | 1016.7 |
| 20260506151552 | 65 | 228 | 0.9 | 1.7 | 0.00 | 0.00 | 0.00 | 53 | 1016.7 |
| 20260506151038 | 64 | 227 | 0.9 | 1.7 | 0.00 | 0.00 | 0.00 | 54 | 1016.7 |
| 20260506150544 | 64 | 360 | 0.9 | 1.7 | 0.00 | 0.00 | 0.00 | 52 | 1016.6 |
| 20260506150053 | 64 | 360 | 0.9 | 1.7 | 0.00 | 0.00 | 0.00 | 53 | 1016.7 |
| 20260506145542 | 64 | 360 | 0.0 | 1.7 | 0.00 | 0.00 | 0.00 | 54 | 1016.7 |
| 20260506145038 | 63 | 360 | 0.9 | 4.3 | 0.00 | 0.00 | 0.00 | 54 | 1016.7 |
| 20260506144554 | 63 | 267 | 0.9 | 4.3 | 0.00 | 0.00 | 0.00 | 55 | 1016.7 |
| 20260506144038 | 63 | 360 | 1.7 | 3.5 | 0.00 | 0.00 | 0.00 | 55 | 1016.7 |
| 20260506143538 | 62 | 210 | 0.9 | 3.5 | 0.00 | 0.00 | 0.00 | 56 | 1016.6 |
| 20260506143050 | 62 | 225 | 0.9 | 3.5 | 0.00 | 0.00 | 0.00 | 57 | 1016.6 |
| 20260506142538 | 62 | 215 | 1.7 | 3.5 | 0.00 | 0.00 | 0.00 | 57 | 1016.5 |
| 20260506142038 | 61 | 232 | 1.7 | 2.6 | 0.00 | 0.00 | 0.00 | 57 | 1016.5 |
| 20260506141549 | 61 | 234 | 0.9 | 1.7 | 0.00 | 0.00 | 0.00 | 58 | 1016.6 |
| 20260506141038 | 61 | 360 | 0.9 | 1.7 | 0.00 | 0.00 | 0.00 | 57 | 1016.5 |
| 20260506140540 | 61 | 360 | 0.9 | 1.7 | 0.00 | 0.00 | 0.00 | 58 | 1016.4 |
| 20260506140048 | 60 | 217 | 0.9 | 2.6 | 0.00 | 0.00 | 0.00 | 59 | 1016.3 |
| 20260506135539 | 60 | 0 | 0.9 | 2.6 | 0.00 | 0.00 | 0.00 | 58 | 1016.3 |
| 20260506135037 | 60 | 217 | 0.9 | 3.5 | 0.00 | 0.00 | 0.00 | 58 | 1016.2 |
| 20260506134545 | 60 | 286 | 1.7 | 3.5 | 0.00 | 0.00 | 0.00 | 58 | 1016.3 |
| 20260506134040 | 60 | 238 | 1.7 | 3.5 | 0.00 | 0.00 | 0.00 | 59 | 1016.1 |
| 20260506133538 | 60 | 360 | 0.9 | 1.7 | 0.00 | 0.00 | 0.00 | 59 | 1016.2 |
| 20260506133052 | 60 | 360 | 0.9 | 1.7 | 0.00 | 0.00 | 0.00 | 60 | 1016.1 |
| 20260506132539 | 59 | 240 | 0.9 | 2.6 | 0.00 | 0.00 | 0.00 | 61 | 1016.1 |
| 20260506132038 | 59 | 238 | 0.0 | 2.6 | 0.00 | 0.00 | 0.00 | 60 | 1016.0 |
| 20260506131552 | 59 | 246 | 1.7 | 2.6 | 0.00 | 0.00 | 0.00 | 61 | 1015.9 |
| 20260506131038 | 59 | 236 | 0.9 | 2.6 | 0.00 | 0.00 | 0.00 | 61 | 1015.8 |
| 20260506130541 | 59 | 245 | 1.7 | 2.6 | 0.00 | 0.00 | 0.00 | 61 | 1015.7 |
| 20260506130112 | 59 | 242 | 1.7 | 3.5 | 0.00 | 0.00 | 0.00 | 60 | 1015.6 |
| 20260506125538 | 59 | 250 | 1.7 | 3.5 | 0.00 | 0.00 | 0.00 | 59 | 1015.7 |
| 20260506125038 | 59 | 228 | 1.7 | 4.3 | 0.00 | 0.00 | 0.00 | 60 | 1015.6 |
| 20260506124558 | 60 | 222 | 1.7 | 4.3 | 0.00 | 0.00 | 0.00 | 59 | 1015.5 |
| 20260506124038 | 60 | 264 | 1.7 | 4.3 | 0.00 | 0.00 | 0.00 | 59 | 1015.4 |
| 20260506123538 | 60 | 242 | 1.7 | 2.6 | 0.00 | 0.00 | 0.00 | 59 | 1015.4 |
| 20260506123053 | 60 | 242 | 1.7 | 2.6 | 0.00 | 0.00 | 0.00 | 59 | 1015.3 |
| 20260506122540 | 59 | 257 | 1.7 | 4.3 | 0.00 | 0.00 | 0.00 | 59 | 1015.3 |
| 20260506122037 | 59 | 265 | 0.9 | 4.3 | 0.00 | 0.00 | 0.00 | 60 | 1015.3 |
| 20260506121547 | 59 | 260 | 1.7 | 3.5 | 0.00 | 0.00 | 0.00 | 59 | 1015.1 |
| 20260506121038 | 59 | 229 | 1.7 | 1.7 | 0.00 | 0.00 | 0.00 | 60 | 1015.1 |
| 20260506120540 | 59 | 250 | 0.9 | 2.6 | 0.00 | 0.00 | 0.00 | 60 | 1015.1 |
| 20260506120048 | 59 | 269 | 1.7 | 2.6 | 0.00 | 0.00 | 0.00 | 60 | 1015.0 |
| 20260506115538 | 59 | 250 | 1.7 | 1.7 | 0.00 | 0.00 | 0.00 | 60 | 1015.0 |
| 20260506115037 | 59 | 239 | 0.9 | 1.7 | 0.00 | 0.00 | 0.00 | 61 | 1015.1 |
| 20260506114551 | 59 | 270 | 0.9 | 2.6 | 0.00 | 0.00 | 0.00 | 61 | 1015.1 |
| 20260506114037 | 59 | 281 | 0.9 | 3.5 | 0.00 | 0.00 | 0.00 | 60 | 1015.1 |
| 20260506113537 | 60 | 264 | 1.7 | 3.5 | 0.00 | 0.00 | 0.00 | 60 | 1015.1 |
| 20260506113055 | 60 | 280 | 1.7 | 4.3 | 0.00 | 0.00 | 0.00 | 59 | 1015.1 |
| 20260506112539 | 60 | 296 | 2.6 | 7.0 | 0.00 | 0.00 | 0.00 | 57 | 1015.0 |
| 20260506112042 | 61 | 247 | 2.6 | 7.0 | 0.00 | 0.00 | 0.00 | 57 | 1015.1 |
| 20260506111549 | 61 | 216 | 2.6 | 5.2 | 0.00 | 0.00 | 0.00 | 57 | 1015.1 |
| 20260506111038 | 61 | 238 | 2.6 | 6.1 | 0.00 | 0.00 | 0.00 | 57 | 1015.1 |
| 20260506110538 | 61 | 239 | 2.6 | 6.1 | 0.00 | 0.00 | 0.00 | 56 | 1015.1 |
| 20260506110100 | 61 | 229 | 4.3 | 7.8 | 0.00 | 0.00 | 0.00 | 56 | 1015.1 |
| 20260506105538 | 61 | 225 | 5.2 | 7.8 | 0.00 | 0.00 | 0.00 | 57 | 1015.1 |
| 20260506105038 | 60 | 194 | 3.5 | 5.2 | 0.00 | 0.00 | 0.00 | 58 | 1015.0 |
| 20260506104552 | 60 | 241 | 2.6 | 5.2 | 0.00 | 0.00 | 0.00 | 58 | 1015.1 |
| 20260506104037 | 61 | 254 | 2.6 | 5.2 | 0.00 | 0.00 | 0.00 | 58 | 1015.1 |
| 20260506103538 | 61 | 251 | 1.7 | 4.3 | 0.00 | 0.00 | 0.00 | 57 | 1015.1 |
| 20260506103050 | 61 | 319 | 1.7 | 4.3 | 0.00 | 0.00 | 0.00 | 57 | 1015.0 |
| 20260506102538 | 61 | 244 | 0.9 | 2.6 | 0.00 | 0.00 | 0.00 | 56 | 1015.0 |
| 20260506102038 | 61 | 268 | 0.9 | 3.5 | 0.00 | 0.00 | 0.00 | 56 | 1014.9 |
| 20260506101600 | 61 | 209 | 1.7 | 3.5 | 0.00 | 0.00 | 0.00 | 56 | 1014.8 |
| 20260506101037 | 62 | 245 | 1.7 | 3.5 | 0.00 | 0.00 | 0.00 | 55 | 1014.9 |
| 20260506100537 | 61 | 226 | 0.9 | 2.6 | 0.00 | 0.00 | 0.00 | 56 | 1014.7 |
| 20260506100109 | 61 | 227 | 0.9 | 2.6 | 0.00 | 0.00 | 0.00 | 56 | 1014.8 |
| 20260506095537 | 61 | 186 | 0.0 | 1.7 | 0.00 | 0.00 | 0.00 | 56 | 1014.7 |
| 20260506095038 | 61 | 186 | 0.9 | 1.7 | 0.00 | 0.00 | 0.00 | 56 | 1014.8 |
| 20260506094552 | 62 | 192 | 0.0 | 1.7 | 0.00 | 0.00 | 0.00 | 55 | 1014.7 |
| 20260506094038 | 62 | 185 | 0.0 | 2.6 | 0.00 | 0.00 | 0.00 | 54 | 1014.8 |
| 20260506093538 | 62 | 216 | 0.0 | 3.5 | 0.00 | 0.00 | 0.00 | 56 | 1014.9 |
| 20260506093051 | 62 | 271 | 1.7 | 3.5 | 0.00 | 0.00 | 0.00 | 53 | 1014.9 |
| 20260506092538 | 62 | 132 | 0.0 | 1.7 | 0.00 | 0.00 | 0.00 | 54 | 1014.8 |
| 20260506092038 | 62 | 83 | 0.0 | 1.7 | 0.00 | 0.00 | 0.00 | 53 | 1014.8 |
| 20260506091548 | 62 | 0 | 0.9 | 1.7 | 0.00 | 0.00 | 0.00 | 53 | 1014.9 |
| 20260506091041 | 62 | 154 | 0.0 | 1.7 | 0.00 | 0.00 | 0.00 | 54 | 1014.9 |
| 20260506090537 | 63 | 0 | 0.0 | 1.7 | 0.00 | 0.00 | 0.00 | 52 | 1015.0 |
| 20260506090051 | 63 | 0 | 0.0 | 1.7 | 0.00 | 0.00 | 0.00 | 52 | 1014.9 |
| 20260506085537 | 63 | 205 | 0.0 | 2.6 | 0.00 | 0.00 | 0.00 | 51 | 1015.0 |
| 20260506085037 | 63 | 228 | 0.0 | 2.6 | 0.00 | 0.00 | 0.00 | 52 | 1015.1 |
| 20260506084619 | 63 | 0 | 0.0 | 1.7 | 0.00 | 0.00 | 0.00 | 52 | 1014.9 |
| 20260506084038 | 63 | 153 | 0.0 | 1.7 | 0.00 | 0.00 | 0.00 | 52 | 1015.0 |
| 20260506083606 | 63 | 153 | 0.0 | 3.5 | 0.00 | 0.00 | 0.00 | 52 | 1015.1 |
| 20260506083051 | 63 | 0 | 0.9 | 3.5 | 0.00 | 0.00 | 0.00 | 52 | 1015.0 |
| 20260506082539 | 63 | 209 | 0.9 | 1.7 | 0.00 | 0.00 | 0.00 | 52 | 1015.1 |
| 20260506082038 | 63 | 178 | 0.0 | 2.6 | 0.00 | 0.00 | 0.00 | 53 | 1015.1 |
| 20260506081555 | 63 | 167 | 0.0 | 3.5 | 0.00 | 0.00 | 0.00 | 51 | 1015.0 |
| 20260506081038 | 63 | 0 | 0.0 | 4.3 | 0.00 | 0.00 | 0.00 | 51 | 1014.9 |
| 20260506080537 | 64 | 17 | 1.7 | 4.3 | 0.00 | 0.00 | 0.00 | 50 | 1015.0 |
| 20260506073051 | 64 | 0 | 0.0 | 2.6 | 0.00 | 0.00 | 0.00 | 50 | 1014.9 |